Time,TemperatureF,DewpointF,PressureIn,WindDirection,WindDirectionDegrees,WindSpeedMPH,WindSpeedGustMPH,Humidity,HourlyPrecipIn,Conditions,Clouds,dailyrainin,SoftwareType,DateUTC
2013-03-01 00:02:00,39.0,34.0,29.67,WNW,282,3.0,13.0,82,0.00,,,0.12,,2013-03-01 05:02:00,
2013-03-01 00:11:00,39.0,34.0,29.67,WNW,282,3.0,13.0,82,0.00,,,0.12,,2013-03-01 05:11:00,
2013-03-01 00:22:00,38.0,34.0,29.67,West,271,5.0,10.0,84,0.00,,,0.12,,2013-03-01 05:22:00,
2013-03-01 00:33:00,38.0,34.0,29.67,West,271,5.0,10.0,84,0.00,,,0.12,,2013-03-01 05:33:00,
2013-03-01 00:42:00,38.0,34.0,29.67,West,271,5.0,10.0,84,0.00,,,0.12,,2013-03-01 05:42:00,
2013-03-01 00:53:00,38.0,34.0,29.67,WSW,252,4.0,9.0,84,0.00,,,0.12,,2013-03-01 05:53:00,
2013-03-01 01:02:00,38.0,34.0,29.67,WSW,252,4.0,9.0,84,0.00,,,0.12,,2013-03-01 06:02:00,
2013-03-01 01:12:00,38.0,34.0,29.67,WSW,252,4.0,9.0,84,0.00,,,0.12,,2013-03-01 06:12:00,
2013-03-01 01:22:00,38.0,34.0,29.67,WNW,290,5.0,9.0,84,0.00,,,0.12,,2013-03-01 06:22:00,
2013-03-01 01:32:00,38.0,34.0,29.67,WNW,290,5.0,9.0,84,0.00,,,0.12,,2013-03-01 06:32:00,
2013-03-01 01:42:00,38.0,34.0,29.67,WNW,290,5.0,9.0,84,0.00,,,0.12,,2013-03-01 06:42:00,
2013-03-01 01:53:00,37.0,33.0,29.68,West,273,6.0,11.0,85,0.00,,,0.12,,2013-03-01 06:53:00,
2013-03-01 02:02:00,37.0,33.0,29.68,West,273,6.0,11.0,85,0.00,,,0.12,,2013-03-01 07:02:00,
2013-03-01 02:12:00,37.0,33.0,29.68,West,273,6.0,11.0,85,0.00,,,0.12,,2013-03-01 07:12:00,
2013-03-01 02:22:00,37.0,33.0,29.68,West,264,8.0,10.0,86,0.00,,,0.12,,2013-03-01 07:22:00,
2013-03-01 02:32:00,37.0,33.0,29.68,West,264,8.0,10.0,86,0.00,,,0.12,,2013-03-01 07:32:00,
2013-03-01 02:42:00,37.0,33.0,29.68,West,264,8.0,10.0,86,0.00,,,0.12,,2013-03-01 07:42:00,
2013-03-01 02:52:00,38.0,34.0,29.68,WSW,249,5.0,12.0,85,0.00,,,0.12,,2013-03-01 07:52:00,
2013-03-01 03:02:00,38.0,34.0,29.68,WSW,249,5.0,12.0,85,0.00,,,0.12,,2013-03-01 08:02:00,
2013-03-01 03:12:00,38.0,34.0,29.68,WSW,249,5.0,12.0,85,0.00,,,0.12,,2013-03-01 08:12:00,
2013-03-01 03:22:00,37.0,33.0,29.68,West,271,2.0,11.0,85,0.00,,,0.12,,2013-03-01 08:22:00,
2013-03-01 03:32:00,37.0,33.0,29.68,West,271,2.0,11.0,85,0.00,,,0.12,,2013-03-01 08:32:00,
2013-03-01 03:43:00,37.0,33.0,29.68,West,271,2.0,11.0,85,0.00,,,0.12,,2013-03-01 08:43:00,
2013-03-01 03:53:00,37.0,33.0,29.69,West,280,7.0,10.0,85,0.00,,,0.12,,2013-03-01 08:53:00,
2013-03-01 04:02:00,37.0,33.0,29.69,West,280,7.0,10.0,85,0.00,,,0.12,,2013-03-01 09:02:00,
2013-03-01 04:12:00,37.0,33.0,29.69,West,280,7.0,10.0,85,0.00,,,0.12,,2013-03-01 09:12:00,
2013-03-01 04:22:00,36.0,32.0,29.70,WNW,297,6.0,10.0,85,0.00,,,0.12,,2013-03-01 09:22:00,
2013-03-01 04:32:00,36.0,32.0,29.70,WNW,297,6.0,10.0,85,0.00,,,0.12,,2013-03-01 09:32:00,
2013-03-01 04:42:00,36.0,32.0,29.70,WNW,297,6.0,10.0,85,0.00,,,0.12,,2013-03-01 09:42:00,
2013-03-01 04:53:00,36.0,32.0,29.71,WNW,290,6.0,12.0,86,0.00,,,0.12,,2013-03-01 09:53:00,
2013-03-01 05:02:00,36.0,32.0,29.71,WNW,290,6.0,12.0,86,0.00,,,0.12,,2013-03-01 10:02:00,
2013-03-01 05:12:00,36.0,32.0,29.71,WNW,290,6.0,12.0,86,0.00,,,0.12,,2013-03-01 10:12:00,
2013-03-01 05:22:00,36.0,33.0,29.71,SSW,211,4.0,10.0,87,0.00,,,0.12,,2013-03-01 10:22:00,
2013-03-01 05:32:00,36.0,33.0,29.71,SSW,211,4.0,10.0,87,0.00,,,0.12,,2013-03-01 10:32:00,
2013-03-01 05:42:00,36.0,33.0,29.71,SSW,211,4.0,10.0,87,0.00,,,0.12,,2013-03-01 10:42:00,
2013-03-01 05:53:00,35.0,32.0,29.71,NW,312,5.0,11.0,87,0.00,,,0.12,,2013-03-01 10:53:00,
2013-03-01 06:02:00,35.0,32.0,29.71,NW,312,5.0,11.0,87,0.00,,,0.12,,2013-03-01 11:02:00,
2013-03-01 06:12:00,35.0,32.0,29.71,NW,312,5.0,11.0,87,0.00,,,0.12,,2013-03-01 11:12:00,
2013-03-01 06:23:00,35.0,32.0,29.71,WNW,295,5.0,11.0,87,0.00,,,0.12,,2013-03-01 11:23:00,
2013-03-01 06:32:00,35.0,32.0,29.71,WNW,295,5.0,11.0,87,0.00,,,0.12,,2013-03-01 11:32:00,
2013-03-01 06:42:00,35.0,32.0,29.71,WNW,295,5.0,11.0,87,0.00,,,0.12,,2013-03-01 11:42:00,
2013-03-01 06:53:00,35.0,32.0,29.71,NW,304,5.0,9.0,88,0.00,,,0.10,,2013-03-01 11:53:00,
2013-03-01 07:02:00,35.0,32.0,29.71,NW,304,5.0,9.0,88,0.00,,,0.10,,2013-03-01 12:02:00,
2013-03-01 07:11:00,35.0,32.0,29.71,NW,304,5.0,9.0,88,0.00,,,0.10,,2013-03-01 12:11:00,
2013-03-01 07:22:00,35.0,32.0,29.72,WNW,291,4.0,8.0,88,0.00,,,0.08,,2013-03-01 12:22:00,
2013-03-01 07:32:00,35.0,32.0,29.72,WNW,291,4.0,8.0,88,0.00,,,0.08,,2013-03-01 12:32:00,
2013-03-01 07:42:00,35.0,32.0,29.72,WNW,291,4.0,8.0,88,0.00,,,0.08,,2013-03-01 12:42:00,
2013-03-01 07:52:00,36.0,33.0,29.74,West,267,3.0,8.0,87,0.00,,,0.06,,2013-03-01 12:52:00,
2013-03-01 08:01:00,36.0,33.0,29.74,West,267,3.0,8.0,87,0.00,,,0.06,,2013-03-01 13:01:00,
2013-03-01 08:12:00,36.0,33.0,29.74,West,267,3.0,8.0,87,0.00,,,0.06,,2013-03-01 13:12:00,
2013-03-01 08:22:00,36.0,33.0,29.74,West,267,3.0,8.0,87,0.00,,,0.06,,2013-03-01 13:22:00,
2013-03-01 08:52:00,40.0,34.0,29.75,NW,308,8.0,17.0,78,0.00,,,0.03,,2013-03-01 13:52:00,
2013-03-01 09:02:00,40.0,34.0,29.75,NW,308,8.0,17.0,78,0.00,,,0.03,,2013-03-01 14:02:00,
2013-03-01 09:12:00,40.0,34.0,29.75,NW,308,8.0,17.0,78,0.00,,,0.03,,2013-03-01 14:12:00,
2013-03-01 09:22:00,42.0,34.0,29.75,NW,304,7.0,13.0,72,0.00,,,0.02,,2013-03-01 14:22:00,
2013-03-01 09:32:00,42.0,34.0,29.75,NW,304,7.0,13.0,72,0.00,,,0.02,,2013-03-01 14:32:00,
2013-03-01 09:42:00,42.0,34.0,29.75,NW,304,7.0,13.0,72,0.00,,,0.02,,2013-03-01 14:42:00,
2013-03-01 09:52:00,43.0,33.0,29.75,NNW,342,8.0,19.0,68,0.00,,,0.01,,2013-03-01 14:52:00,
2013-03-01 10:02:00,43.0,33.0,29.75,NNW,342,8.0,19.0,68,0.00,,,0.01,,2013-03-01 15:02:00,
2013-03-01 10:11:00,44.0,33.0,29.74,NW,326,9.0,18.0,64,0.00,,,0.01,,2013-03-01 15:11:00,
2013-03-01 10:21:00,44.0,33.0,29.74,NW,326,9.0,18.0,64,0.00,,,0.01,,2013-03-01 15:21:00,
2013-03-01 10:32:00,44.0,33.0,29.74,NW,326,9.0,18.0,64,0.00,,,0.01,,2013-03-01 15:32:00,
2013-03-01 10:42:00,44.0,33.0,29.74,NW,326,9.0,18.0,64,0.00,,,0.01,,2013-03-01 15:42:00,
2013-03-01 10:52:00,43.0,32.0,29.73,WNW,300,8.0,23.0,65,0.00,,,0.01,,2013-03-01 15:52:00,
2013-03-01 11:01:00,43.0,32.0,29.73,WNW,300,8.0,23.0,65,0.00,,,0.01,,2013-03-01 16:01:00,
2013-03-01 11:11:00,43.0,32.0,29.73,WNW,300,8.0,23.0,65,0.00,,,0.01,,2013-03-01 16:11:00,
2013-03-01 11:22:00,44.0,32.0,29.74,WNW,294,8.0,16.0,63,0.00,,,0.01,,2013-03-01 16:22:00,
2013-03-01 11:32:00,44.0,32.0,29.74,WNW,294,8.0,16.0,63,0.00,,,0.01,,2013-03-01 16:32:00,
2013-03-01 11:42:00,44.0,32.0,29.74,WNW,294,8.0,16.0,63,0.00,,,0.01,,2013-03-01 16:42:00,
2013-03-01 11:52:00,44.0,32.0,29.75,NW,318,6.0,16.0,63,0.00,,,0.01,,2013-03-01 16:52:00,
2013-03-01 12:01:00,44.0,32.0,29.75,NW,318,6.0,16.0,63,0.00,,,0.01,,2013-03-01 17:01:00,
2013-03-01 12:11:00,44.0,32.0,29.75,NW,318,6.0,16.0,63,0.00,,,0.01,,2013-03-01 17:11:00,
2013-03-01 12:21:00,44.0,31.0,29.75,NW,309,5.0,19.0,59,0.00,,,0.00,,2013-03-01 17:21:00,
2013-03-01 12:32:00,44.0,31.0,29.75,NW,309,5.0,19.0,59,0.00,,,0.00,,2013-03-01 17:32:00,
2013-03-01 12:42:00,44.0,31.0,29.75,NW,309,5.0,19.0,59,0.00,,,0.00,,2013-03-01 17:42:00,
2013-03-01 12:52:00,45.0,31.0,29.74,NNW,340,11.0,17.0,58,0.00,,,0.00,,2013-03-01 17:52:00,
2013-03-01 13:01:00,45.0,31.0,29.74,NNW,340,11.0,17.0,58,0.00,,,0.00,,2013-03-01 18:01:00,
2013-03-01 13:12:00,45.0,31.0,29.74,NNW,340,11.0,17.0,58,0.00,,,0.00,,2013-03-01 18:12:00,
2013-03-01 13:22:00,44.0,31.0,29.74,North,7,13.0,18.0,60,0.00,,,0.00,,2013-03-01 18:22:00,
2013-03-01 13:31:00,44.0,31.0,29.74,NW,310,2.0,14.0,60,0.00,,,0.00,,2013-03-01 18:31:00,
2013-03-01 13:32:00,44.0,31.0,29.74,North,7,13.0,18.0,60,0.00,,,0.00,,2013-03-01 18:32:00,
2013-03-01 13:42:00,44.0,31.0,29.74,North,7,13.0,18.0,60,0.00,,,0.00,,2013-03-01 18:42:00,
2013-03-01 13:52:00,44.0,31.0,29.74,NW,310,2.0,14.0,60,0.00,,,0.00,,2013-03-01 18:52:00,
2013-03-01 14:01:00,44.0,31.0,29.74,NW,310,2.0,14.0,60,0.00,,,0.00,,2013-03-01 19:01:00,
2013-03-01 14:11:00,44.0,31.0,29.74,NW,310,2.0,14.0,60,0.00,,,0.00,,2013-03-01 19:11:00,
2013-03-01 14:21:00,44.0,31.0,29.74,NW,310,2.0,14.0,60,0.00,,,0.00,,2013-03-01 19:21:00,
2013-03-01 15:22:00,45.0,32.0,29.74,NW,319,7.0,12.0,60,0.00,,,0.00,,2013-03-01 20:22:00,
2013-03-01 15:32:00,45.0,32.0,29.74,NW,319,7.0,12.0,60,0.00,,,0.00,,2013-03-01 20:32:00,
2013-03-01 15:42:00,45.0,32.0,29.74,NW,319,7.0,12.0,60,0.00,,,0.00,,2013-03-01 20:42:00,
2013-03-01 15:52:00,44.0,32.0,29.74,NW,312,7.0,14.0,63,0.00,,,0.00,,2013-03-01 20:52:00,
2013-03-01 16:01:00,44.0,32.0,29.74,NW,312,7.0,14.0,63,0.00,,,0.00,,2013-03-01 21:01:00,
2013-03-01 16:11:00,44.0,32.0,29.74,NW,312,7.0,14.0,63,0.00,,,0.00,,2013-03-01 21:11:00,
2013-03-01 16:21:00,44.0,33.0,29.75,WNW,288,5.0,18.0,64,0.00,,,0.00,,2013-03-01 21:21:00,
2013-03-01 16:32:00,44.0,33.0,29.75,WNW,288,5.0,18.0,64,0.00,,,0.00,,2013-03-01 21:32:00,
2013-03-01 16:42:00,44.0,33.0,29.75,WNW,288,5.0,18.0,64,0.00,,,0.00,,2013-03-01 21:42:00,
2013-03-01 16:52:00,44.0,33.0,29.75,WSW,255,5.0,14.0,65,0.00,,,0.00,,2013-03-01 21:52:00,
2013-03-01 17:01:00,44.0,33.0,29.75,WSW,255,5.0,14.0,65,0.00,,,0.00,,2013-03-01 22:01:00,
2013-03-01 17:12:00,44.0,33.0,29.75,WSW,255,5.0,14.0,65,0.00,,,0.00,,2013-03-01 22:12:00,
2013-03-01 17:22:00,44.0,32.0,29.75,WNW,295,6.0,12.0,63,0.00,,,0.00,,2013-03-01 22:22:00,
2013-03-01 17:31:00,43.0,32.0,29.76,NW,304,4.0,10.0,65,0.00,,,0.00,,2013-03-01 22:31:00,
2013-03-01 17:32:00,44.0,32.0,29.75,WNW,295,6.0,12.0,63,0.00,,,0.00,,2013-03-01 22:32:00,
2013-03-01 17:42:00,44.0,32.0,29.75,WNW,295,6.0,12.0,63,0.00,,,0.00,,2013-03-01 22:42:00,
2013-03-01 17:52:00,43.0,32.0,29.76,NW,304,4.0,10.0,65,0.00,,,0.00,,2013-03-01 22:52:00,
2013-03-01 18:01:00,43.0,32.0,29.76,NW,304,4.0,10.0,65,0.00,,,0.00,,2013-03-01 23:01:00,
2013-03-01 18:11:00,43.0,32.0,29.76,NW,304,4.0,10.0,65,0.00,,,0.00,,2013-03-01 23:11:00,
2013-03-01 18:21:00,43.0,32.0,29.76,NW,304,4.0,10.0,65,0.00,,,0.00,,2013-03-01 23:21:00,
2013-03-01 18:52:00,42.0,32.0,29.78,West,259,3.0,8.0,68,0.00,,,0.00,,2013-03-01 23:52:00,
2013-03-01 19:01:00,42.0,32.0,29.78,NW,304,9.0,9.0,67,0.00,,,0.00,,2013-03-02 00:01:00,
2013-03-01 19:02:00,42.0,32.0,29.78,West,259,3.0,8.0,68,0.00,,,0.00,,2013-03-02 00:02:00,
2013-03-01 19:12:00,42.0,32.0,29.78,West,259,3.0,8.0,68,0.00,,,0.00,,2013-03-02 00:12:00,
2013-03-01 19:22:00,42.0,32.0,29.78,NW,304,9.0,9.0,67,0.00,,,0.00,,2013-03-02 00:22:00,
2013-03-01 19:32:00,42.0,32.0,29.78,NW,304,9.0,9.0,67,0.00,,,0.00,,2013-03-02 00:32:00,
2013-03-01 19:42:00,42.0,32.0,29.78,NW,304,9.0,9.0,67,0.00,,,0.00,,2013-03-02 00:42:00,
2013-03-01 19:52:00,42.0,32.0,29.78,NW,304,9.0,9.0,67,0.00,,,0.00,,2013-03-02 00:52:00,
2013-03-01 20:21:00,42.0,32.0,29.79,WNW,302,2.0,10.0,68,0.00,,,0.00,,2013-03-02 01:21:00,
2013-03-01 20:32:00,42.0,32.0,29.79,WNW,302,2.0,10.0,68,0.00,,,0.00,,2013-03-02 01:32:00,
2013-03-01 20:42:00,42.0,32.0,29.79,WNW,302,2.0,10.0,68,0.00,,,0.00,,2013-03-02 01:42:00,
2013-03-01 20:52:00,42.0,32.0,29.80,NW,311,4.0,10.0,68,0.00,,,0.00,,2013-03-02 01:52:00,
2013-03-01 21:01:00,42.0,32.0,29.80,NW,311,4.0,10.0,68,0.00,,,0.00,,2013-03-02 02:01:00,
2013-03-01 21:11:00,42.0,32.0,29.80,NW,311,4.0,10.0,68,0.00,,,0.00,,2013-03-02 02:11:00,
2013-03-01 21:22:00,42.0,33.0,29.81,WNW,301,5.0,8.0,69,0.00,,,0.00,,2013-03-02 02:22:00,
2013-03-01 21:32:00,42.0,33.0,29.81,WNW,301,5.0,8.0,69,0.00,,,0.00,,2013-03-02 02:32:00,
2013-03-01 21:42:00,42.0,33.0,29.81,WNW,301,5.0,8.0,69,0.00,,,0.00,,2013-03-02 02:42:00,
2013-03-01 21:52:00,41.0,32.0,29.81,West,281,5.0,8.0,70,0.00,,,0.00,,2013-03-02 02:52:00,
2013-03-01 22:02:00,41.0,32.0,29.81,West,281,5.0,8.0,70,0.00,,,0.00,,2013-03-02 03:02:00,
2013-03-01 22:11:00,41.0,32.0,29.81,West,281,5.0,8.0,70,0.00,,,0.00,,2013-03-02 03:11:00,
2013-03-01 22:22:00,41.0,32.0,29.81,WNW,298,5.0,10.0,70,0.00,,,0.00,,2013-03-02 03:22:00,
2013-03-01 22:32:00,41.0,32.0,29.81,WNW,298,5.0,10.0,70,0.00,,,0.00,,2013-03-02 03:32:00,
2013-03-01 22:42:00,41.0,32.0,29.81,WNW,298,5.0,10.0,70,0.00,,,0.00,,2013-03-02 03:42:00,
2013-03-01 22:52:00,41.0,32.0,29.82,NNW,342,3.0,9.0,69,0.00,,,0.00,,2013-03-02 03:52:00,
2013-03-01 23:01:00,41.0,32.0,29.82,NNW,342,3.0,9.0,69,0.00,,,0.00,,2013-03-02 04:01:00,
2013-03-01 23:12:00,41.0,32.0,29.82,NNW,342,3.0,9.0,69,0.00,,,0.00,,2013-03-02 04:12:00,
2013-03-01 23:22:00,41.0,32.0,29.82,NNW,342,3.0,9.0,69,0.00,,,0.00,,2013-03-02 04:22:00,
2013-03-01 23:52:00,39.0,31.0,29.81,WNW,297,5.0,9.0,73,0.00,,,0.00,,2013-03-02 04:52:00,